Find Starlink 37322

NORAD ID: 68715 Int'l Des: 2026-081 Owner: SPXS Country: US Constellation: starlink operational
LEOCIRCULAR

Aktuelle Ansicht

3D-Globus wird geladen...

Über Starlink 37322

Beschreibung wird geladen...

Nächste Überflüge

Passes for default location (London). Set your location on the main map for personalized predictions.

Höhenverlauf

Loading altitude history...

Zweizeiliger Elementsatz

1 68715U 26081S 26150.91110893 .00018243 00000-0 54982-3 0 9999
2 68715 53.1586 12.0123 0001116 72.9008 287.2117 15.34395082 7332
Epoch: 30. Mai 2026 • Age: 10 hours

Aktueller Status

Höhe 463.8 km
Geschwindigkeit 7.64 km/s
Subsatellitenpunkt 30.14°N, 35.76°E
Startdatum 14. Apr. 2026
Alter 0.1 years
Typ internet

Technische Details

Klassifizierung Payload
Masse 575.00 kg
Trockenmasse 530.00 kg
Gesamtmasse 575.00 kg
Länge 0.30 m
Durchmesser 4.10 m
Spannweite 29.00 m
Form Box + pan
Hersteller SPXS
Bus-Typ Starlink V2MO
Phasenstatus In Orbit
Besitzer/Staat SPXS/US

Most Searched